Location: Peterborough
(44.3091°N, 78.3197°W)
Time: 00:12:04
(UTC-04:00)

Vanguard 2 Rocket - Pass Details

Date: 31 March 2023
Orbit: 554 x 3314 km, 32.9° (Epoch: 02 June)

Event Time Altitude Azimuth Distance (km) Brightness Sun altitude
Rises 18:49:35 0° 223° (SW) 2,904 10.3 8.0°
Reaches altitude 10° 18:52:02 10° 206° (SSW) 2,174 9.3 7.6°
Maximum altitude 18:55:50 22° 156° (SSE) 1,835 8.3 6.9°
Drops below altitude 10° 19:01:02 10° 109° (ESE) 3,099 9.1 6.0°
Sets 19:05:23 0° 96° (E) 4,581 9.8 5.2°
